Home   Weather   Nottingham   Past weeks

Flag for United Kingdom Past Weather in Nottingham, England, United Kingdom — Yesterday and Last 2 Weeks

Now
39 °F

Partly cloudy.


Feels Like: 34 °F
Forecast: 38 / 42 °F
Wind: 8 mph from South

Location: East Midlands

Current Time: Jan 17, 2017 at 1:09:24 am

Latest Report: Jan 17, 2017 at 12:20 am


Visibility: 4 mi

Pressure: 30.45 "Hg

Humidity: 100%

Dew Point: 39 °F

Location of NottinghamLocation

Past Weather in Nottingham — Graph

°F

Nottingham Temperature Yesterday

Maximum temperature yesterday: 46 °F (at 12:20 am)
Minimum temperature yesterday: 39 °F (at 9:20 pm)
Average temperature yesterday: 42 °F

High & Low Weather Summary for the Past Weeks

 TemperatureHumidityPressure
High52 °F (Jan 11, 5:20 am)100% (Jan 3, 3:20 am)30.60 "Hg (Jan 3, 3:20 am)
Low27 °F (Jan 5, 7:20 am)57% (Jan 4, 1:20 pm)29.42 "Hg (Jan 12, 4:50 pm)
Average40 °F87%30.16 "Hg
* Reported Jan 1 11:20 pm — Jan 16 11:50 pm, Nottingham, Weather by CustomWeather, © 2017

Note: Actual official high and low records may vary slightly from our data, if they occured in-between our weather recording intervals... More about our weather records

Advertising

Nottingham Weather History for the Previous 24 Hours

Scroll right to see more
 ConditionsComfort  
Time TempWeatherWind HumidityBarometerVisibility
11:50 pm
Mon, Jan 16
39 °FPartly cloudy.8 mph93%30.48 "Hg4 mi
11:20 pm39 °FDrizzle. Fog.8 mph100%30.45 "Hg3 mi
10:50 pm39 °FPassing clouds.7 mph100%30.45 "Hg4 mi
10:20 pm39 °FPassing clouds.8 mph100%30.45 "Hg4 mi
9:50 pm39 °FFog.9 mph100%30.45 "Hg3 mi
9:20 pm39 °FFog.8 mph100%30.42 "Hg2 mi
8:50 pm41 °FFog.10 mph93%30.42 "Hg1 mi
8:20 pm41 °FDrizzle. Fog.8 mph100%30.42 "Hg1 mi
7:50 pm41 °FDrizzle. Fog.7 mph100%30.42 "Hg1 mi
7:20 pm41 °FFog.8 mph100%30.39 "Hg1 mi
6:50 pm41 °FFog.6 mph100%30.39 "Hg1 mi
6:20 pm41 °FFog.6 mph100%30.39 "Hg1 mi
5:50 pm41 °FFog.7 mph100%30.36 "Hg1 mi
5:20 pm41 °FFog.7 mph100%30.36 "Hg1 mi
4:50 pm43 °FFog.7 mph93%30.36 "Hg1 mi
4:20 pm43 °FFog.6 mph100%30.36 "Hg1 mi
3:50 pm43 °FFog.5 mph100%30.33 "Hg1 mi
3:20 pm43 °FFog.5 mph100%30.33 "Hg1 mi
2:50 pm43 °FFog.5 mph100%30.33 "Hg1 mi
2:20 pm43 °FFog.3 mph100%30.33 "Hg1 mi
1:50 pm43 °FFog.2 mph100%30.33 "Hg1 mi
1:20 pm43 °FFog.3 mph100%30.33 "Hg1 mi
12:50 pm41 °FFog.5 mph100%30.33 "Hg1 mi
12:20 pm41 °FFog.5 mph100%30.33 "Hg1 mi
11:50 am41 °FFog.8 mph100%30.33 "Hg1 mi
11:20 am41 °FFog.10 mph100%30.33 "Hg1 mi
10:50 am41 °FFog.9 mph100%30.33 "Hg1 mi
10:20 am41 °FFog.9 mph100%30.33 "Hg1 mi
9:50 am41 °FFog.8 mph100%30.30 "Hg1 mi
9:20 am41 °FFog.9 mph100%30.30 "Hg1 mi
8:50 am41 °FFog.9 mph100%30.30 "Hg1 mi
8:20 am41 °FFog.9 mph100%30.30 "Hg1 mi
7:50 am41 °FLight rain. Fog.9 mph100%30.30 "Hg1 mi
7:20 am41 °FDrizzle. Fog.9 mph100%30.27 "Hg1 mi
6:50 am41 °FLight rain. Fog.9 mph100%30.27 "Hg1 mi
6:20 am41 °FLight rain. Passing clouds.9 mph100%30.27 "Hg1 mi
5:50 am43 °FLight rain. Low clouds.9 mph93%30.27 "Hg1 mi
5:20 am45 °FFog.3 mph93%30.27 "Hg1 mi
4:50 am45 °FFog.2 mph100%30.27 "Hg2 mi
4:20 am45 °FFog.3 mph100%30.27 "Hg1 mi
3:50 am46 °FFog.5 mph93%30.27 "Hg1 mi
3:20 am46 °FFog.3 mph93%30.27 "Hg1 mi
2:50 am45 °FDrizzle. Mostly cloudy.3 mph100%30.27 "Hg2 mi
2:20 am46 °FDrizzle. Fog.2 mph93%30.27 "Hg1 mi
1:50 am46 °FDrizzle. Fog.3 mph100%30.27 "Hg1 mi
1:20 am46 °FDrizzle. Fog.2 mph93%30.27 "Hg1 mi
Weather by CustomWeather, © 2017

See weather overviewHow to use our weather pages